User: anonymous   Login
Location: Unspecified
(0.0000°N, 0.0000°E)
Time: 02:59:06
(UTC+00:00)
Language:

ESSA 2 - Orbit

View from above orbital plane
View from above orbital plane
View from above satellite
View from above satellite

Ground track
Ground track

The orbit data is extracted from the following two-line orbital elements,

1 02091U 66016A   18171.44414306 -.00000024  00000-0  98418-4 0  9996
2 02091 101.1302 114.4383 0039277  64.5572  47.5873 12.69374315423681
Epoch (UTC): 20 June 2018 10:39:33
Eccentricity: 0.0039277
inclination: 101.1302°
perigee height: 1354 km
apogee height: 1415 km
right ascension of ascending node: 114.4383°
argument of perigee: 64.5572°
revolutions per day: 12.69374315
mean anomaly at epoch: 47.5873°
orbit number at epoch: 42368

The dashed part of the orbit path shows where the satellite is in the earth's shadow,  

DLR